Weather in Kuldiga

Latvia     56°58′05″N   21°58′15″E
temp.,
°C
wind,
m/s
gust,
m/s
humid.,
%
clouds,
%
prec.,
mm/h
press.,
hPa
HPBL,
m
16 september, thu
thu1600:00+7e259498 0.0 1020115
03:00+6e259732 0.0 1020103
06:00+5e2698100 0.0 1019133
09:00+8e3885100 0.0 1018257
12:00+13ese5863100 0.0 1018628
15:00+15ese5753100 0.0 1016957
18:00+13ese4969100 0.1 1015727
21:00+11e41187100 0.6 1015581
17 september, fri
fri1700:00+11e41181100 0.1 1015468
03:00+11e41075100 0.1 1014425
06:00+10e41172100 0.0 1013440
09:00+11e4116899 0.0 1014501
12:00+13e5106062 0.0 1015657
15:00+14e5853100 0.0 1015897
18:00+14ene585590 0.0 10161069
21:00+11ene41167100 0.0 1017549
18 september, sat
sat1800:00+10e41266100 0.0 1018567
03:00+8ene41169100 0.0 1019451
06:00+7ene41175100 0.0 1019467
09:00+9ene4116865 0.0 1020724
12:00+12ene61046100 0.0 10201042
15:00+13ene694338 0.0 10201217
18:00+12ene59490 0.0 10201223
21:00+8ne311630 0.0 1022362
19 september, sun
sun1900:00+5ne39770 0.0 1022196
03:00+5nne310810 0.0 1022292
06:00+5ne312855 0.0 1022457
09:00+8ne411720 0.0 1022759
12:00+12ne69515 0.0 10221219
15:00+13ne68485 0.0 10221428
18:00+12ne58558 0.0 10231267
21:00+7nne310675 0.0 1024327
20 september, mon
mon2000:00+5nne28785 0.0 1025173
03:00+4nne26853 0.0 1026104
06:00+4nne29910 0.0 1027186
09:00+7ne310743 0.0 1028711
12:00+11ne57463 0.0 10281142
15:00+12ne57434 0.0 10281288
18:00+11ne47555 0.0 10281132
21:00+5n28755 0.0 1029158